Time,TemperatureF,DewpointF,PressureIn,WindDirection,WindDirectionDegrees,WindSpeedMPH,WindSpeedGustMPH,Humidity,HourlyPrecipIn,Conditions,Clouds,dailyrainin,SoftwareType,DateUTC
2013-01-17 00:13:00,37.5,16.0,30.44,SE,124,4.0,-999.0,41,-99.99,,,0.00,weatherlink.com 1.10,2013-01-17 08:13:00,
2013-01-17 00:28:00,35.6,17.0,30.44,ESE,120,3.0,-999.0,47,-99.99,,,0.00,weatherlink.com 1.10,2013-01-17 08:28:00,
2013-01-17 00:43:00,34.7,17.0,30.45,SSE,155,2.0,-999.0,49,-99.99,,,0.00,weatherlink.com 1.10,2013-01-17 08:43:00,
2013-01-17 00:58:00,33.2,18.0,30.45,ESE,110,0.0,-999.0,53,-99.99,,,0.00,weatherlink.com 1.10,2013-01-17 08:58:00,
2013-01-17 01:13:00,32.8,17.0,30.44,ESE,122,2.0,-999.0,53,-99.99,,,0.00,weatherlink.com 1.10,2013-01-17 09:13:00,
2013-01-17 01:28:00,33.3,17.0,30.44,SE,129,1.0,-999.0,52,-99.99,,,0.00,weatherlink.com 1.10,2013-01-17 09:28:00,
2013-01-17 01:43:00,33.2,17.0,30.44,SE,129,3.0,-999.0,52,-99.99,,,0.00,weatherlink.com 1.10,2013-01-17 09:43:00,
2013-01-17 01:58:00,37.2,16.0,30.44,ESE,108,2.0,-999.0,42,-99.99,,,0.00,weatherlink.com 1.10,2013-01-17 09:58:00,
2013-01-17 02:13:00,40.9,16.0,30.44,ESE,118,2.0,-999.0,37,-99.99,,,0.00,weatherlink.com 1.10,2013-01-17 10:13:00,
2013-01-17 02:28:00,35.9,16.0,30.44,SE,141,3.0,-999.0,45,-99.99,,,0.00,weatherlink.com 1.10,2013-01-17 10:28:00,
2013-01-17 02:43:00,41.7,16.0,30.44,ESE,110,2.0,-999.0,35,-99.99,,,0.00,weatherlink.com 1.10,2013-01-17 10:43:00,
2013-01-17 02:58:00,43.3,15.0,30.43,ESE,107,6.0,-999.0,32,-99.99,,,0.00,weatherlink.com 1.10,2013-01-17 10:58:00,
2013-01-17 03:13:00,42.6,15.0,30.43,East,91,5.0,-999.0,33,-99.99,,,0.00,weatherlink.com 1.10,2013-01-17 11:13:00,
2013-01-17 03:28:00,39.9,16.0,30.43,East,84,5.0,-999.0,38,-99.99,,,0.00,weatherlink.com 1.10,2013-01-17 11:28:00,
2013-01-17 03:43:00,38.7,17.0,30.43,ESE,115,4.0,-999.0,42,-99.99,,,0.00,weatherlink.com 1.10,2013-01-17 11:43:00,
2013-01-17 03:58:00,39.0,18.0,30.42,ESE,102,4.0,-999.0,42,-99.99,,,0.00,weatherlink.com 1.10,2013-01-17 11:58:00,
2013-01-17 04:13:00,40.4,16.0,30.41,SSE,156,7.0,-999.0,38,-99.99,,,0.00,weatherlink.com 1.10,2013-01-17 12:13:00,
2013-01-17 04:28:00,39.8,17.0,30.41,SE,131,6.0,-999.0,39,-99.99,,,0.00,weatherlink.com 1.10,2013-01-17 12:28:00,
2013-01-17 04:43:00,39.5,17.0,30.41,SE,134,7.0,-999.0,40,-99.99,,,0.00,weatherlink.com 1.10,2013-01-17 12:43:00,
2013-01-17 04:58:00,38.4,16.0,30.41,SE,139,0.0,-999.0,41,-99.99,,,0.00,weatherlink.com 1.10,2013-01-17 12:58:00,
2013-01-17 05:13:00,38.9,15.0,30.41,ESE,123,4.0,-999.0,38,-99.99,,,0.00,weatherlink.com 1.10,2013-01-17 13:13:00,
2013-01-17 05:28:00,39.4,16.0,30.41,SSE,153,2.0,-999.0,38,-99.99,,,0.00,weatherlink.com 1.10,2013-01-17 13:28:00,
2013-01-17 05:43:00,39.6,15.0,30.40,South,183,3.0,-999.0,36,-99.99,,,0.00,weatherlink.com 1.10,2013-01-17 13:43:00,
2013-01-17 05:58:00,40.0,15.0,30.41,SE,146,3.0,-999.0,36,-99.99,,,0.00,weatherlink.com 1.10,2013-01-17 13:58:00,
2013-01-17 06:13:00,39.7,15.0,30.41,SSE,159,5.0,-999.0,36,-99.99,,,0.00,weatherlink.com 1.10,2013-01-17 14:13:00,
2013-01-17 06:28:00,40.0,14.0,30.41,SSE,165,7.0,-999.0,35,-99.99,,,0.00,weatherlink.com 1.10,2013-01-17 14:28:00,
2013-01-17 06:43:00,40.6,15.0,30.41,SSE,160,7.0,-999.0,35,-99.99,,,0.00,weatherlink.com 1.10,2013-01-17 14:43:00,
2013-01-17 06:58:00,40.6,15.0,30.41,SSE,156,7.0,-999.0,35,-99.99,,,0.00,weatherlink.com 1.10,2013-01-17 14:58:00,
2013-01-17 07:13:00,39.9,15.0,30.41,East,101,1.0,-999.0,37,-99.99,,,0.00,weatherlink.com 1.10,2013-01-17 15:13:00,
2013-01-17 07:28:00,37.3,15.0,30.42,ESE,119,2.0,-999.0,40,-99.99,,,0.00,weatherlink.com 1.10,2013-01-17 15:28:00,
2013-01-17 07:43:00,36.6,16.0,30.42,SE,134,3.0,-999.0,43,-99.99,,,0.00,weatherlink.com 1.10,2013-01-17 15:43:00,
2013-01-17 07:58:00,37.7,15.0,30.42,SE,128,3.0,-999.0,39,-99.99,,,0.00,weatherlink.com 1.10,2013-01-17 15:58:00,
2013-01-17 08:13:00,40.8,15.0,30.42,SSE,159,8.0,-999.0,35,-99.99,,,0.00,weatherlink.com 1.10,2013-01-17 16:13:00,
2013-01-17 08:28:00,41.8,15.0,30.43,SSE,153,10.0,-999.0,34,-99.99,,,0.00,weatherlink.com 1.10,2013-01-17 16:28:00,
2013-01-17 08:43:00,42.1,15.0,30.43,SSE,158,11.0,-999.0,34,-99.99,,,0.00,weatherlink.com 1.10,2013-01-17 16:43:00,
2013-01-17 08:58:00,42.6,15.0,30.43,SSE,147,12.0,-999.0,33,-99.99,,,0.00,weatherlink.com 1.10,2013-01-17 16:58:00,
2013-01-17 09:13:00,42.2,16.0,30.43,SE,145,12.0,-999.0,35,-99.99,,,0.00,weatherlink.com 1.10,2013-01-17 17:13:00,
2013-01-17 09:28:00,42.3,17.0,30.43,SSE,162,11.0,-999.0,36,-99.99,,,0.00,weatherlink.com 1.10,2013-01-17 17:28:00,
2013-01-17 09:43:00,44.8,17.0,30.42,SSE,165,6.0,-999.0,33,-99.99,,,0.00,weatherlink.com 1.10,2013-01-17 17:43:00,
2013-01-17 09:58:00,45.5,18.0,30.43,SE,142,6.0,-999.0,34,-99.99,,,0.00,weatherlink.com 1.10,2013-01-17 17:58:00,
2013-01-17 10:13:00,44.6,18.0,30.42,SSE,162,9.0,-999.0,34,-99.99,,,0.00,weatherlink.com 1.10,2013-01-17 18:13:00,
2013-01-17 10:28:00,44.9,19.0,30.42,SSE,167,7.0,-999.0,36,-99.99,,,0.00,weatherlink.com 1.10,2013-01-17 18:28:00,
2013-01-17 10:43:00,45.6,19.0,30.42,SSE,162,11.0,-999.0,35,-99.99,,,0.00,weatherlink.com 1.10,2013-01-17 18:43:00,
2013-01-17 10:58:00,45.7,19.0,30.42,SSE,153,10.0,-999.0,34,-99.99,,,0.00,weatherlink.com 1.10,2013-01-17 18:58:00,
2013-01-17 11:13:00,46.6,19.0,30.41,SSE,150,8.0,-999.0,33,-99.99,,,0.00,weatherlink.com 1.10,2013-01-17 19:13:00,
2013-01-17 11:28:00,47.0,19.0,30.41,SSE,161,13.0,-999.0,33,-99.99,,,0.00,weatherlink.com 1.10,2013-01-17 19:28:00,
2013-01-17 11:43:00,47.2,19.0,30.40,SSE,168,12.0,-999.0,33,-99.99,,,0.00,weatherlink.com 1.10,2013-01-17 19:43:00,
2013-01-17 11:58:00,48.3,22.0,30.39,South,186,11.0,-999.0,35,-99.99,,,0.00,weatherlink.com 1.10,2013-01-17 19:58:00,
2013-01-17 12:13:00,48.2,21.0,30.39,South,177,9.0,-999.0,34,-99.99,,,0.00,weatherlink.com 1.10,2013-01-17 20:13:00,
2013-01-17 12:28:00,48.8,20.0,30.39,SSE,162,11.0,-999.0,32,-99.99,,,0.00,weatherlink.com 1.10,2013-01-17 20:28:00,
2013-01-17 12:43:00,48.3,21.0,30.38,SSE,152,11.0,-999.0,34,-99.99,,,0.00,weatherlink.com 1.10,2013-01-17 20:43:00,
2013-01-17 12:58:00,48.8,21.0,30.37,SSE,160,7.0,-999.0,33,-99.99,,,0.00,weatherlink.com 1.10,2013-01-17 20:58:00,
2013-01-17 13:13:00,49.6,21.0,30.37,SSE,153,6.0,-999.0,33,-99.99,,,0.00,weatherlink.com 1.10,2013-01-17 21:13:00,
2013-01-17 13:28:00,49.7,22.0,30.36,South,179,5.0,-999.0,34,-99.99,,,0.00,weatherlink.com 1.10,2013-01-17 21:28:00,
2013-01-17 13:43:00,50.4,22.0,30.36,South,188,5.0,-999.0,33,-99.99,,,0.00,weatherlink.com 1.10,2013-01-17 21:43:00,
2013-01-17 13:58:00,50.7,22.0,30.35,South,184,9.0,-999.0,33,-99.99,,,0.00,weatherlink.com 1.10,2013-01-17 21:58:00,
2013-01-17 14:13:00,50.5,21.0,30.35,SSE,162,9.0,-999.0,32,-99.99,,,0.00,weatherlink.com 1.10,2013-01-17 22:13:00,
2013-01-17 14:28:00,50.0,22.0,30.35,South,177,4.0,-999.0,33,-99.99,,,0.00,weatherlink.com 1.10,2013-01-17 22:28:00,
2013-01-17 14:43:00,50.0,22.0,30.34,SSE,153,8.0,-999.0,33,-99.99,,,0.00,weatherlink.com 1.10,2013-01-17 22:43:00,
2013-01-17 14:58:00,50.2,21.0,30.34,SE,136,8.0,-999.0,32,-99.99,,,0.00,weatherlink.com 1.10,2013-01-17 22:58:00,
2013-01-17 15:13:00,49.6,20.0,30.34,SSE,148,7.0,-999.0,31,-99.99,,,0.00,weatherlink.com 1.10,2013-01-17 23:13:00,
2013-01-17 15:28:00,49.4,20.0,30.34,SE,136,8.0,-999.0,32,-99.99,,,0.00,weatherlink.com 1.10,2013-01-17 23:28:00,
2013-01-17 15:43:00,49.1,21.0,30.34,SE,139,6.0,-999.0,33,-99.99,,,0.00,weatherlink.com 1.10,2013-01-17 23:43:00,
2013-01-17 15:58:00,48.5,22.0,30.34,SSE,150,7.0,-999.0,35,-99.99,,,0.00,weatherlink.com 1.10,2013-01-17 23:58:00,
2013-01-17 16:13:00,47.7,22.0,30.35,SSE,150,4.0,-999.0,36,-99.99,,,0.00,weatherlink.com 1.10,2013-01-18 00:13:00,
2013-01-17 16:28:00,46.3,22.0,30.35,ESE,120,3.0,-999.0,39,-99.99,,,0.00,weatherlink.com 1.10,2013-01-18 00:28:00,
2013-01-17 16:43:00,44.3,22.0,30.35,ESE,115,3.0,-999.0,42,-99.99,,,0.00,weatherlink.com 1.10,2013-01-18 00:43:00,
2013-01-17 16:58:00,42.3,22.0,30.35,ESE,110,3.0,-999.0,44,-99.99,,,0.00,weatherlink.com 1.10,2013-01-18 00:58:00,
2013-01-17 17:13:00,41.4,22.0,30.34,ESE,116,4.0,-999.0,47,-99.99,,,0.00,weatherlink.com 1.10,2013-01-18 01:13:00,
2013-01-17 17:28:00,42.1,22.0,30.34,SSE,164,8.0,-999.0,45,-99.99,,,0.00,weatherlink.com 1.10,2013-01-18 01:28:00,
2013-01-17 17:43:00,42.5,21.0,30.34,SSE,156,10.0,-999.0,43,-99.99,,,0.00,weatherlink.com 1.10,2013-01-18 01:43:00,
2013-01-17 17:58:00,42.1,21.0,30.34,SSE,150,7.0,-999.0,44,-99.99,,,0.00,weatherlink.com 1.10,2013-01-18 01:58:00,
2013-01-17 18:13:00,41.2,21.0,30.34,SE,138,9.0,-999.0,45,-99.99,,,0.00,weatherlink.com 1.10,2013-01-18 02:13:00,
2013-01-17 18:28:00,40.7,21.0,30.34,East,82,2.0,-999.0,46,-99.99,,,0.00,weatherlink.com 1.10,2013-01-18 02:28:00,
2013-01-17 18:43:00,41.2,20.0,30.34,ESE,114,6.0,-999.0,43,-99.99,,,0.00,weatherlink.com 1.10,2013-01-18 02:43:00,
2013-01-17 18:58:00,39.1,21.0,30.34,ESE,115,3.0,-999.0,48,-99.99,,,0.00,weatherlink.com 1.10,2013-01-18 02:58:00,
2013-01-17 19:13:00,40.6,21.0,30.34,SE,142,6.0,-999.0,45,-99.99,,,0.00,weatherlink.com 1.10,2013-01-18 03:13:00,
2013-01-17 19:28:00,40.0,21.0,30.34,SSE,148,7.0,-999.0,46,-99.99,,,0.00,weatherlink.com 1.10,2013-01-18 03:28:00,
2013-01-17 19:43:00,40.9,20.0,30.34,SSE,155,7.0,-999.0,44,-99.99,,,0.00,weatherlink.com 1.10,2013-01-18 03:43:00,
2013-01-17 19:58:00,39.9,20.0,30.35,ESE,120,2.0,-999.0,45,-99.99,,,0.00,weatherlink.com 1.10,2013-01-18 03:58:00,
2013-01-17 20:13:00,41.4,19.0,30.35,SE,145,6.0,-999.0,40,-99.99,,,0.00,weatherlink.com 1.10,2013-01-18 04:13:00,
2013-01-17 20:28:00,38.9,20.0,30.35,SE,139,4.0,-999.0,47,-99.99,,,0.00,weatherlink.com 1.10,2013-01-18 04:28:00,
2013-01-17 20:43:00,39.8,20.0,30.34,SSE,149,7.0,-999.0,45,-99.99,,,0.00,weatherlink.com 1.10,2013-01-18 04:43:00,
2013-01-17 20:58:00,38.8,20.0,30.34,East,92,3.0,-999.0,47,-99.99,,,0.00,weatherlink.com 1.10,2013-01-18 04:58:00,
2013-01-17 21:13:00,39.3,19.0,30.34,ESE,103,2.0,-999.0,44,-99.99,,,0.00,weatherlink.com 1.10,2013-01-18 05:13:00,
2013-01-17 21:28:00,39.0,19.0,30.34,ESE,121,4.0,-999.0,44,-99.99,,,0.00,weatherlink.com 1.10,2013-01-18 05:28:00,
2013-01-17 21:43:00,38.9,20.0,30.34,SE,135,6.0,-999.0,46,-99.99,,,0.00,weatherlink.com 1.10,2013-01-18 05:43:00,
2013-01-17 21:58:00,39.2,19.0,30.34,SSE,149,9.0,-999.0,45,-99.99,,,0.00,weatherlink.com 1.10,2013-01-18 05:58:00,
2013-01-17 22:13:00,39.6,19.0,30.34,SE,146,12.0,-999.0,44,-99.99,,,0.00,weatherlink.com 1.10,2013-01-18 06:13:00,
2013-01-17 22:28:00,39.3,19.0,30.34,ESE,107,11.0,-999.0,45,-99.99,,,0.00,weatherlink.com 1.10,2013-01-18 06:28:00,
2013-01-17 22:43:00,39.1,19.0,30.34,SE,130,9.0,-999.0,44,-99.99,,,0.00,weatherlink.com 1.10,2013-01-18 06:43:00,
2013-01-17 22:58:00,38.1,19.0,30.34,ESE,110,3.0,-999.0,47,-99.99,,,0.00,weatherlink.com 1.10,2013-01-18 06:58:00,
2013-01-17 23:13:00,38.0,18.0,30.34,SSE,158,2.0,-999.0,44,-99.99,,,0.00,weatherlink.com 1.10,2013-01-18 07:13:00,
2013-01-17 23:28:00,37.6,17.0,30.34,SE,135,2.0,-999.0,44,-99.99,,,0.00,weatherlink.com 1.10,2013-01-18 07:28:00,
2013-01-17 23:43:00,37.5,17.0,30.34,SE,142,3.0,-999.0,44,-99.99,,,0.00,weatherlink.com 1.10,2013-01-18 07:43:00,
2013-01-17 23:58:00,38.0,16.0,30.34,SSE,158,2.0,-999.0,41,-99.99,,,0.00,weatherlink.com 1.10,2013-01-18 07:58:00,